Regional Weather Roundup
Issued by NWS

Home | Current Version | Previous Version | Text Only | Print | Product List | Glossary On
Versions: 1 2 3 4 5 6 7 8 9 10 11 12 13 14 15 16 17 18 19 20 21 22 23 24 25 26 27 28 29 30 31 32 33 34 35 36 37 38 39 40 41 42 43 44 45 46 47 48 49 50
000
ASUS43 KMPX 171810
RWRMN
WEATHER ROUNDUP FOR MINNESOTA
NATIONAL WEATHER SERVICE TWIN CITIES/CHANHASSEN MN
100 PM CDT WED SEP 17 2014


NOTE: "FAIR" INDICATES FEW OR NO CLOUDS BELOW 12,000 FEET WITH NO
SIGNIFICANT WEATHER AND/OR OBSTRUCTIONS TO VISIBILITY. N/A MEANS
CURRENT SKY AND/OR WEATHER CONDITIONS ARE NOT AVAILABLE.

MNZ060>063-068>070-171900-
   Twin Cities Metro

CITY           SKY/WX    TMP DP  RH WIND       PRES   REMARKS
TWIN CITIES    FAIR      69  50  50 S7        29.95S
6HR MIN TEMP:  56; 6HR MAX TEMP:  71;

ST PAUL        FAIR      70  52  52 VRB3      29.96S
CRYSTAL        FAIR      72  51  47 CALM      29.94S
BLAINE         MOSUNNY   72  54  53 CALM      29.95S
LAKEVILLE      FAIR      70  52  52 CALM      29.95F
EDEN PRAIRIE     N/A    N/A N/A N/A MISG        N/A
SOUTH ST PAUL  FAIR      70  53  53 S5        29.95S
LAKE ELMO      FAIR      70  54  56 CALM      29.97S
$$
MNZ001>005-007-008-013>017-022>024-027-028-171900-
   Northwest Minnesota

CITY           SKY/WX    TMP DP  RH WIND       PRES   REMARKS
BEMIDJI        FAIR      65  49  54 N8        29.97S
HALLOCK        PTSUNNY   57  46  67 N6        30.04R
ROSEAU         FAIR      54  45  71 E16       30.05R
WARROAD        CLOUDY    48  43  81 NE12G17   30.07R
THIEF RVR FALL FAIR      61  50  67 NE12      30.00R
CROOKSTON      FAIR      64  52  63 NE9       29.99S
FOSSTON        FAIR      70  48  46 N8        29.98R
DETROIT LAKES  FAIR      68  46  45 N3        29.98R
MOORHEAD       FAIR      70  48  46 NW6       29.97R
PARK RAPIDS    FAIR      70  46  42 N8        29.95F
MAHNOMEN       FAIR      68  48  47 N8        29.96S
$$
MNZ006-009>011-018-025>026-171900-
   North Central Minnesota

CITY           SKY/WX    TMP DP  RH WIND       PRES   REMARKS
BAUDETTE       PTSUNNY   55  43  63 NE10      30.03S
FLAG ISLAND    CLOUDY    46  37  71 NE10G17   30.06F
INTL FALLS     CLOUDY    51  42  71 NE12      30.04R
6HR MIN TEMP:  49; 6HR MAX TEMP:  53; 6HR PCP: TRACE;

WASKISH        PTSUNNY   59  50  72 NE3       30.01R
BIG FORK       CLOUDY    55  48  76 N7        30.00R
LONGVILLE      FAIR      70  48  46 NW3       29.95S
GRAND RAPIDS   FAIR      64  48  55 N7        29.96S
CRANE LAKE     FAIR      54  45  71 NE3       30.03R
ORR            PTSUNNY   59  45  58 CALM      29.97S
COOK           PTSUNNY   57  48  72 NW6       29.99S
WALKER         FAIR      65  51  59 E5        29.96R
$$
MNZ012-019>021-037-171900-
   Northeast Minnesota

CITY           SKY/WX    TMP DP  RH WIND       PRES   REMARKS
DULUTH         FAIR      69  47  45 N8        29.94S
6HR MIN TEMP:  47; 6HR MAX TEMP:  70;

ELY            CLOUDY    54  46  76 NE7       29.99R
HIBBING        PTSUNNY   66  49  54 NE6       29.97R
EVELETH        FAIR      61  48  63 NE8       29.98R
DULUTH HARBOR  FAIR      61  54  77 NE28      29.96R
TWO HARBORS    CLOUDY    54  46  76 E15       29.98R
SILVER BAY     CLOUDY    45  45 100 E14G21    30.00R
GRAND MARAIS     N/A     45  41  86 E15       30.04R
G MARAIS ARPRT CLOUDY    39  37  93 NE7       30.02R FOG
$$
MNZ029>031-032-039>041-046>048-054>057-064-171900-
   West Central Minnesota

CITY           SKY/WX    TMP DP  RH WIND       PRES   REMARKS
FERGUS FALLS   FAIR      70  48  46 E6        29.95S
WHEATON        FAIR      66  52  59 NE5       29.96F
MORRIS         FAIR      73  55  53 SE6       29.94S
ALEXANDRIA     FAIR      69  56  62 E8        29.97R
ELBOW LAKE     FAIR      69  55  62 N6        29.95F
WADENA         FAIR      68  54  60 N7        29.95S
GLENWOOD       FAIR      72  57  60 NE5       29.95S
APPLETON       FAIR      73  54  49 N5        29.94S
BENSON         FAIR      72  57  60 S3        29.94F
ORTONVILLE     FAIR      70  52  52 CALM      29.95S
MADISON        FAIR      72  59  64 N3        29.95S
WILLMAR        FAIR      72  54  53 E5        29.96S
$$
MNZ033>034-036-042>043-049>051-058-059-171900-
   Central Minnesota

CITY           SKY/WX    TMP DP  RH WIND       PRES   REMARKS
ST CLOUD       FAIR      72  53  51 CALM      29.95S
6HR MIN TEMP:  47; 6HR MAX TEMP:  73;

SAUK CENTRE    FAIR      68  55  62 NE3       29.96R
PAYNESVILLE    FAIR      67  54  63 E3        29.95S
AITKIN         FAIR      72  50  46 CALM      29.94S
PINE RIVER     FAIR      68  48  49 CALM      29.99S
BRAINERD       FAIR      67  52  58 CALM      29.96S
STAPLES        FAIR      68  52  56 NE6       29.96S
LONG PRAIRIE   PTSUNNY   68  54  60 E5        29.96S
LITTLE FALLS   FAIR      68  52  56 CALM      29.96S
LITCHFIELD     FAIR      72  57  60 SE5       29.96R
BUFFALO        PTSUNNY   69  53  58 CALM      29.96S
MAPLE LAKE     FAIR      70  57  63 CALM      29.95F
$$
MNZ037-044-045-052-053-171900-
   East Central Minnesota

CITY           SKY/WX    TMP DP  RH WIND       PRES   REMARKS
PRINCETON      FAIR      72  54  53 NE3       29.95S
MORA           FAIR      68  52  56 CALM      29.97S
CAMBRIDGE      FAIR      72  55  56 E3        29.94S
RUSH CITY      FAIR      69  53  56 CALM      29.95S
MOOSE LAKE     FAIR      68  46  45 CALM      29.93S
HINCKLEY       FAIR      68  54  60 CALM      29.95S
CLOQUET        FAIR      68  46  45 CALM      29.95S
MCGREGOR       FAIR      68  50  52 W3        29.95F
$$
MNZ071>073-080-081-089-090-097-098-171900-
   Southwest Minnesota

CITY           SKY/WX    TMP DP  RH WIND       PRES   REMARKS
MONTEVIDEO     FAIR      73  57  56 S5        29.95S
GRANITE FALLS  FAIR      71  57  61 N3        29.95F
CANBY          FAIR      69  57  65 NE3       29.96S
MARSHALL       FAIR      70  55  60 E5        29.94S
REDWOOD FALLS  FAIR      73  56  54 NE6       29.94S
OLIVIA         FAIR      72  54  53 CALM      29.94S
PIPESTONE      FAIR      72  57  60 E3        29.95R
WINDOM         PTSUNNY   72  55  56 SE3       29.95S
WORTHINGTON    PTSUNNY   70  55  60 SE3       29.95S
JACKSON        FAIR      72  54  53 CALM      29.95F
TRACY          FAIR      70  58  65 CALM      29.95S
SLAYTON        FAIR      69  56  63 CALM      29.96R
$$
MNZ065>067-074>077-082>085-091>093-171900-
   South Central Minnesota

CITY           SKY/WX    TMP DP  RH WIND       PRES   REMARKS
MANKATO        CLOUDY    70  52  52 SE5       29.96S
NEW ULM        FAIR      70  57  64 SE3       29.95S
ST JAMES       FAIR      72  54  53 W3        29.95F
FAIRMONT       FAIR      70  52  52 S3        29.95F
GLENCOE        FAIR      72  50  45 E3        29.95S
FARIBAULT      FAIR      73  46  38 CALM      29.96F
OWATONNA       FAIR      70  52  52 SW3       29.96F
WASECA         FAIR      68  46  45 CALM      29.97F
ALBERT LEA     FAIR      70  52  52 CALM      29.96F
$$
MNZ078>079-086>088-094>096-171900-
   Southeast Minnesota

CITY           SKY/WX    TMP DP  RH WIND       PRES   REMARKS
ROCHESTER      FAIR      69  50  50 VRB3      29.99F
6HR MIN TEMP:  49; 6HR MAX TEMP:  69;

RED WING       FAIR      72  52  49 CALM      29.95S
STANTON        FAIR      71  52  50 E5        29.95S
DODGE CENTER   FAIR      70  52  52 S5        29.97F
WINONA         FAIR      70  52  52 SW6       29.97F
AUSTIN         FAIR      68  54  60 CALM      29.97F
PRESTON        PTSUNNY   66  56  71 CALM      29.99F
$$
ABBREVIATIONS USED IN REMARKS
   TC - TEMPERATURES IN CELSIUS
  WCI - WIND CHILL INDEX
   HX - HEAT INDEX
  VSB - VISIBILITY
$$


USA.gov is the U.S. government's official web portal to all federal, state and local government web resources and services.